AFL3500 UWGG-ULLI

Flight info

Callsign AFL3500
Flight time 1h 21m
Altitude 38000
Route LARNO2U LARNO T784 ROKUR P164 PINOK N50 GENPA GENPA1V
Aircraft A321/M-SDE3FGHIRWY/LB1

Departure

Time 2026-04-25 15:00
Airport Nizhny Novgorod / Strigino International Airport (UWGG)

Arrival

Time 2026-04-25 16:22
Airport Pulkovo Airport (ULLI)
Time Latitude Longitude Altitude Speed Heading
2026-04-25 14:27 56.21948 43.78812 266 ft 0 kts 101°
2026-04-25 14:51 56.21949 43.78797 266 ft 3 kts 98°
2026-04-25 14:51 56.21951 43.78762 266 ft 3 kts 83°
2026-04-25 14:52 56.21947 43.78728 266 ft 3 kts 57°
2026-04-25 14:52 56.21934 43.78706 266 ft 3 kts 14°
2026-04-25 14:52 56.21931 43.78704 266 ft 0 kts 11°
2026-04-25 14:54 56.21947 43.78710 266 ft 6 kts 11°
2026-04-25 14:54 56.21996 43.78727 266 ft 8 kts 11°
2026-04-25 14:55 56.22057 43.78747 266 ft 10 kts
2026-04-25 14:55 56.22125 43.78713 266 ft 11 kts 351°
2026-04-25 14:55 56.22206 43.78732 266 ft 13 kts 12°
2026-04-25 14:55 56.22299 43.78766 266 ft 15 kts 12°
2026-04-25 14:56 56.22368 43.78791 266 ft 16 kts 12°
2026-04-25 14:56 56.22479 43.78854 266 ft 18 kts 17°
2026-04-25 14:56 56.22604 43.78902 266 ft 19 kts 11°
2026-04-25 14:56 56.22792 43.78971 266 ft 22 kts 12°
2026-04-25 14:57 56.22896 43.79009 266 ft 23 kts 11°
2026-04-25 14:57 56.23061 43.79070 266 ft 25 kts 11°
2026-04-25 14:57 56.23240 43.79136 266 ft 27 kts 11°
2026-04-25 14:57 56.23428 43.79205 266 ft 29 kts 11°
2026-04-25 14:58 56.23636 43.79243 266 ft 31 kts
2026-04-25 14:58 56.23857 43.79260 266 ft 33 kts
2026-04-25 14:58 56.24025 43.79265 266 ft 23 kts 347°
2026-04-25 14:58 56.24089 43.79164 266 ft 6 kts 301°
2026-04-25 14:59 56.24113 43.79091 267 ft 7 kts 298°
2026-04-25 14:59 56.24113 43.79019 268 ft 6 kts 243°
2026-04-25 14:59 56.24076 43.78979 268 ft 9 kts 196°
2026-04-25 14:59 56.23948 43.78931 267 ft 39 kts 192°
2026-04-25 15:00 56.23440 43.78743 266 ft 106 kts 191°
2026-04-25 15:00 56.22538 43.78416 266 ft 156 kts 192°
2026-04-25 15:00 56.21408 43.77981 635 ft 168 kts 194°
2026-04-25 15:00 56.20275 43.77529 1285 ft 171 kts 198°
2026-04-25 15:01 56.19102 43.76965 1728 ft 179 kts 206°
2026-04-25 15:01 56.17912 43.75991 1893 ft 198 kts 210°
2026-04-25 15:01 56.16614 43.74797 2021 ft 222 kts 211°
2026-04-25 15:01 56.15182 43.73470 2301 ft 242 kts 211°
2026-04-25 15:02 56.13637 43.72057 2895 ft 253 kts 210°
2026-04-25 15:02 56.12048 43.70633 3705 ft 256 kts 209°
2026-04-25 15:02 56.10433 43.69215 4564 ft 259 kts 209°
2026-04-25 15:02 56.08800 43.67796 5389 ft 262 kts 209°
2026-04-25 15:03 56.07168 43.66384 6199 ft 265 kts 209°
2026-04-25 15:03 56.05479 43.64926 6962 ft 268 kts 209°
2026-04-25 15:03 56.03811 43.63485 7682 ft 272 kts 209°
2026-04-25 15:03 56.02168 43.61789 8393 ft 273 kts 221°
2026-04-25 15:04 56.00800 43.59442 9104 ft 273 kts 233°
2026-04-25 15:04 55.99548 43.56845 9801 ft 277 kts 233°
2026-04-25 15:04 55.98249 43.54153 10069 ft 297 kts 233°
2026-04-25 15:04 55.96845 43.51243 10205 ft 320 kts 232°
2026-04-25 15:05 55.95340 43.48142 10343 ft 340 kts 232°
2026-04-25 15:05 55.93758 43.44910 10805 ft 349 kts 232°
2026-04-25 15:05 55.92150 43.41641 11443 ft 352 kts 232°
2026-04-25 15:06 55.88888 43.35014 12763 ft 359 kts 232°
2026-04-25 15:06 55.87233 43.31655 13420 ft 362 kts 232°
2026-04-25 15:06 55.85585 43.28311 13972 ft 365 kts 232°
2026-04-25 15:06 55.83917 43.24884 14535 ft 367 kts 236°
2026-04-25 15:07 55.82626 43.21012 15067 ft 364 kts 251°
2026-04-25 15:07 55.81998 43.16676 15597 ft 361 kts 267°
2026-04-25 15:07 55.82075 43.12235 16141 ft 360 kts 282°
2026-04-25 15:07 55.82842 43.08009 16663 ft 360 kts 297°
2026-04-25 15:08 55.84185 43.04236 17202 ft 362 kts 305°
2026-04-25 15:08 55.85642 43.00555 17746 ft 364 kts 305°
2026-04-25 15:08 55.87102 42.96855 18242 ft 366 kts 305°
2026-04-25 15:08 55.88568 42.93124 18703 ft 368 kts 304°
2026-04-25 15:09 55.90024 42.89415 19158 ft 370 kts 304°
2026-04-25 15:09 55.91504 42.85641 19609 ft 373 kts 304°
2026-04-25 15:09 55.94484 42.78012 20498 ft 377 kts 304°
2026-04-25 15:10 55.95988 42.74152 20939 ft 379 kts 304°
2026-04-25 15:10 55.97495 42.70279 21380 ft 381 kts 304°
2026-04-25 15:10 56.00536 42.62438 22254 ft 386 kts 304°
2026-04-25 15:11 56.02067 42.58474 22675 ft 388 kts 304°
2026-04-25 15:11 56.03604 42.54494 23088 ft 390 kts 304°
2026-04-25 15:11 56.05141 42.50473 23457 ft 392 kts 303°
2026-04-25 15:12 56.08139 42.42327 24128 ft 396 kts 302°
2026-04-25 15:12 56.09642 42.38173 24456 ft 398 kts 302°
2026-04-25 15:12 56.11152 42.33996 24758 ft 401 kts 302°
2026-04-25 15:12 56.11665 42.32578 24868 ft 401 kts 302°
2026-04-25 15:13 56.14209 42.25580 25418 ft 405 kts 302°
2026-04-25 15:13 56.17292 42.17083 26042 ft 408 kts 302°
2026-04-25 15:13 56.18845 42.12803 26338 ft 410 kts 302°
2026-04-25 15:14 56.20435 42.08539 26655 ft 412 kts 304°
2026-04-25 15:14 56.22132 42.04374 26957 ft 414 kts 306°
2026-04-25 15:14 56.23903 42.00278 27259 ft 416 kts 307°
2026-04-25 15:14 56.25709 41.96204 27571 ft 417 kts 307°
2026-04-25 15:15 56.27528 41.92102 27851 ft 420 kts 307°
2026-04-25 15:15 56.29340 41.87965 28152 ft 420 kts 306°
2026-04-25 15:15 56.31111 41.83854 28556 ft 419 kts 306°
2026-04-25 15:15 56.32884 41.79683 28961 ft 418 kts 306°
2026-04-25 15:16 56.34641 41.75515 29364 ft 417 kts 305°
2026-04-25 15:16 56.36387 41.71357 29758 ft 415 kts 305°
2026-04-25 15:16 56.39878 41.63047 30354 ft 415 kts 305°
2026-04-25 15:17 56.43370 41.54738 30910 ft 415 kts 305°
2026-04-25 15:17 56.45117 41.50577 31193 ft 416 kts 305°
2026-04-25 15:17 56.46868 41.46405 31465 ft 416 kts 305°
2026-04-25 15:18 56.48621 41.42221 31740 ft 417 kts 305°
2026-04-25 15:18 56.52090 41.33895 32280 ft 417 kts 305°
2026-04-25 15:18 56.53830 41.29696 32560 ft 417 kts 305°
2026-04-25 15:19 56.55573 41.25489 32834 ft 417 kts 305°
2026-04-25 15:19 56.56164 41.24061 32912 ft 417 kts 305°
2026-04-25 15:19 56.59054 41.17072 33340 ft 417 kts 305°
2026-04-25 15:19 56.60768 41.12771 33600 ft 417 kts 300°
2026-04-25 15:20 56.62108 41.08177 33821 ft 415 kts 291°
2026-04-25 15:20 56.63061 41.03182 34013 ft 415 kts 287°
2026-04-25 15:20 56.63914 40.98170 34187 ft 416 kts 287°
2026-04-25 15:20 56.64774 40.93170 34363 ft 416 kts 287°
2026-04-25 15:21 56.65633 40.88195 34534 ft 417 kts 287°
2026-04-25 15:21 56.66507 40.83132 34706 ft 418 kts 287°
2026-04-25 15:21 56.67380 40.78053 34876 ft 419 kts 287°
2026-04-25 15:21 56.68238 40.73032 35040 ft 419 kts 287°
2026-04-25 15:22 56.69103 40.67975 35209 ft 420 kts 287°
2026-04-25 15:22 56.69973 40.62874 35369 ft 421 kts 287°
2026-04-25 15:22 56.70835 40.57795 35527 ft 421 kts 287°
2026-04-25 15:22 56.71694 40.52687 35693 ft 422 kts 287°
2026-04-25 15:23 56.72549 40.47588 35852 ft 422 kts 287°
2026-04-25 15:23 56.73405 40.42479 36005 ft 423 kts 287°
2026-04-25 15:23 56.74265 40.37347 36149 ft 423 kts 287°
2026-04-25 15:23 56.75121 40.32218 36291 ft 424 kts 287°
2026-04-25 15:24 56.75976 40.27064 36402 ft 424 kts 287°
2026-04-25 15:24 56.76823 40.21951 36543 ft 424 kts 286°
2026-04-25 15:24 56.77671 40.16799 36680 ft 425 kts 286°
2026-04-25 15:24 56.77955 40.15069 36726 ft 425 kts 286°
2026-04-25 15:25 56.79371 40.06438 36935 ft 425 kts 286°
2026-04-25 15:25 56.80221 40.01262 37068 ft 425 kts 286°
2026-04-25 15:25 56.81061 39.96144 37191 ft 425 kts 286°
2026-04-25 15:25 56.81903 39.90982 37335 ft 425 kts 286°
2026-04-25 15:26 56.82752 39.85776 37465 ft 424 kts 286°
2026-04-25 15:26 56.83591 39.80627 37628 ft 423 kts 286°
2026-04-25 15:26 56.85273 39.70282 37680 ft 426 kts 286°
2026-04-25 15:27 56.86946 39.59889 37681 ft 427 kts 286°
2026-04-25 15:28 56.89443 39.44233 37676 ft 427 kts 286°
2026-04-25 15:28 56.91091 39.33812 37688 ft 427 kts 285°
2026-04-25 15:29 56.92750 39.23318 37684 ft 428 kts 285°
2026-04-25 15:29 56.94395 39.12838 37686 ft 428 kts 285°
2026-04-25 15:30 56.95755 39.04111 37687 ft 428 kts 285°
2026-04-25 15:30 56.97637 38.91892 37689 ft 429 kts 285°
2026-04-25 15:31 56.99263 38.81313 37688 ft 429 kts 285°
2026-04-25 15:31 57.00869 38.70841 37697 ft 429 kts 285°
2026-04-25 15:32 57.02481 38.60255 37675 ft 428 kts 285°
2026-04-25 15:32 57.04065 38.49729 37680 ft 427 kts 284°
2026-04-25 15:33 57.06413 38.34007 37670 ft 427 kts 284°
2026-04-25 15:33 57.07981 38.23487 37671 ft 426 kts 284°
2026-04-25 15:34 57.09535 38.12963 37683 ft 426 kts 284°
2026-04-25 15:34 57.10565 38.05933 37676 ft 426 kts 284°
2026-04-25 15:35 57.13372 37.86610 37667 ft 426 kts 284°
2026-04-25 15:36 57.15642 37.70793 37664 ft 426 kts 284°
2026-04-25 15:36 57.17407 37.60386 37658 ft 426 kts 290°
2026-04-25 15:37 57.19602 37.50234 37656 ft 426 kts 290°
2026-04-25 15:37 57.21776 37.40052 37651 ft 427 kts 290°
2026-04-25 15:38 57.23934 37.29915 37654 ft 427 kts 290°
2026-04-25 15:38 57.26091 37.19703 37650 ft 426 kts 290°
2026-04-25 15:39 57.28243 37.09485 37644 ft 426 kts 290°
2026-04-25 15:39 57.30387 36.99263 37666 ft 426 kts 289°
2026-04-25 15:40 57.31799 36.92486 37657 ft 426 kts 289°
2026-04-25 15:40 57.34283 36.80517 37644 ft 426 kts 289°
2026-04-25 15:41 57.36752 36.68594 37612 ft 426 kts 289°
2026-04-25 15:41 57.38861 36.58317 37618 ft 427 kts 289°
2026-04-25 15:42 57.40603 36.49747 37621 ft 427 kts 289°
2026-04-25 15:42 57.42703 36.39413 37635 ft 427 kts 289°
2026-04-25 15:43 57.44805 36.29066 37630 ft 428 kts 289°
2026-04-25 15:43 57.46890 36.18704 37629 ft 428 kts 289°
2026-04-25 15:44 57.48963 36.08309 37622 ft 429 kts 289°
2026-04-25 15:44 57.51044 35.97918 37624 ft 429 kts 289°
2026-04-25 15:45 57.53134 35.87505 37634 ft 429 kts 289°
2026-04-25 15:45 57.54862 35.78841 37626 ft 429 kts 288°
2026-04-25 15:46 57.57274 35.66649 37613 ft 429 kts 288°
2026-04-25 15:46 57.59321 35.56211 37611 ft 429 kts 288°
2026-04-25 15:47 57.61370 35.45847 37598 ft 429 kts 289°
2026-04-25 15:47 57.63507 35.35457 37597 ft 429 kts 289°
2026-04-25 15:48 57.65651 35.25077 37609 ft 428 kts 289°
2026-04-25 15:48 57.67780 35.14668 37590 ft 428 kts 289°
2026-04-25 15:49 57.69880 35.04271 37585 ft 428 kts 289°
2026-04-25 15:49 57.72652 34.94422 37571 ft 432 kts 305°
2026-04-25 15:50 57.76617 34.85914 37571 ft 433 kts 308°
2026-04-25 15:50 57.80574 34.77466 37575 ft 434 kts 308°
2026-04-25 15:51 57.83897 34.70312 37572 ft 434 kts 308°
2026-04-25 15:51 57.88510 34.60355 37555 ft 434 kts 307°
2026-04-25 15:52 57.92478 34.51774 37551 ft 435 kts 307°
2026-04-25 15:52 57.96442 34.43185 37548 ft 435 kts 307°
2026-04-25 15:53 58.00403 34.34555 37553 ft 435 kts 307°
2026-04-25 15:53 58.04352 34.25895 37539 ft 435 kts 307°
2026-04-25 15:54 58.08274 34.17256 37537 ft 435 kts 307°
2026-04-25 15:54 58.12229 34.08568 37531 ft 436 kts 307°
2026-04-25 15:55 58.16175 33.99856 37535 ft 436 kts 307°
2026-04-25 15:55 58.20134 33.91123 37548 ft 436 kts 307°
2026-04-25 15:56 58.24080 33.82362 37540 ft 436 kts 307°
2026-04-25 15:56 58.28016 33.73569 37528 ft 437 kts 307°
2026-04-25 15:57 58.31938 33.64750 37531 ft 437 kts 307°
2026-04-25 15:57 58.35838 33.55972 37526 ft 437 kts 307°
2026-04-25 15:58 58.39760 33.47112 37516 ft 437 kts 307°
2026-04-25 15:58 58.43660 33.38255 37504 ft 436 kts 307°
2026-04-25 15:59 58.47566 33.29382 37509 ft 437 kts 307°
2026-04-25 15:59 58.51474 33.20453 37500 ft 437 kts 306°
2026-04-25 16:00 58.54061 33.14526 37503 ft 438 kts 306°
2026-04-25 16:00 58.59259 33.02557 37527 ft 439 kts 306°
2026-04-25 16:01 58.63175 32.93533 36798 ft 444 kts 306°
2026-04-25 16:01 58.65164 32.88936 35922 ft 448 kts 306°
2026-04-25 16:01 58.67159 32.84325 35170 ft 449 kts 306°
2026-04-25 16:02 58.69191 32.79739 34460 ft 450 kts 308°
2026-04-25 16:02 58.71305 32.75289 33783 ft 451 kts 310°
2026-04-25 16:02 58.73487 32.70920 33033 ft 451 kts 310°
2026-04-25 16:02 58.75663 32.66670 32231 ft 451 kts 311°
2026-04-25 16:03 58.77863 32.62374 31418 ft 450 kts 310°
2026-04-25 16:03 58.80050 32.58045 30603 ft 449 kts 310°
2026-04-25 16:03 58.82208 32.53696 29814 ft 448 kts 309°
2026-04-25 16:03 58.84349 32.49330 28872 ft 448 kts 309°
2026-04-25 16:04 58.86484 32.44942 27860 ft 448 kts 309°
2026-04-25 16:04 58.88609 32.40557 26990 ft 446 kts 309°
2026-04-25 16:04 58.90733 32.36172 26155 ft 445 kts 309°
2026-04-25 16:04 58.92844 32.31813 25431 ft 442 kts 309°
2026-04-25 16:05 58.94943 32.27489 24767 ft 438 kts 309°
2026-04-25 16:05 58.97025 32.23203 24091 ft 434 kts 309°
2026-04-25 16:05 59.01124 32.14727 22724 ft 428 kts 309°
2026-04-25 16:06 59.03154 32.10512 21957 ft 425 kts 309°
2026-04-25 16:06 59.05143 32.06376 21237 ft 422 kts 309°
2026-04-25 16:06 59.07133 32.02226 20554 ft 418 kts 309°
2026-04-25 16:06 59.09108 31.98100 19860 ft 415 kts 309°
2026-04-25 16:07 59.11067 31.94004 19216 ft 411 kts 309°
2026-04-25 16:07 59.11725 31.92629 19000 ft 410 kts 309°
2026-04-25 16:07 59.14939 31.85899 17918 ft 405 kts 309°
2026-04-25 16:07 59.16848 31.81890 17215 ft 402 kts 309°
2026-04-25 16:08 59.18744 31.77903 16505 ft 399 kts 309°
2026-04-25 16:08 59.20604 31.73985 15833 ft 396 kts 309°
2026-04-25 16:08 59.22467 31.70052 15209 ft 392 kts 309°
2026-04-25 16:08 59.24308 31.66157 14576 ft 389 kts 309°
2026-04-25 16:09 59.26143 31.62263 13928 ft 387 kts 309°
2026-04-25 16:09 59.27954 31.58414 13445 ft 382 kts 309°
2026-04-25 16:09 59.29740 31.54614 12916 ft 377 kts 309°
2026-04-25 16:09 59.31502 31.50855 12425 ft 372 kts 309°
2026-04-25 16:10 59.33237 31.47147 11925 ft 367 kts 309°
2026-04-25 16:10 59.34952 31.43484 11420 ft 362 kts 309°
2026-04-25 16:10 59.36647 31.39862 10925 ft 358 kts 309°
2026-04-25 16:10 59.38320 31.36275 10439 ft 354 kts 309°
2026-04-25 16:11 59.39961 31.32737 10162 ft 344 kts 309°
2026-04-25 16:11 59.41540 31.29330 10018 ft 330 kts 309°
2026-04-25 16:11 59.43058 31.26059 9915 ft 318 kts 308°
2026-04-25 16:11 59.44520 31.22909 9787 ft 306 kts 308°
2026-04-25 16:12 59.45928 31.19882 9660 ft 294 kts 308°
2026-04-25 16:12 59.47273 31.16986 9463 ft 287 kts 308°
2026-04-25 16:12 59.48606 31.14104 9366 ft 283 kts 308°
2026-04-25 16:12 59.49051 31.13137 9316 ft 284 kts 308°
2026-04-25 16:13 59.51266 31.08315 8613 ft 283 kts 308°
2026-04-25 16:13 59.52588 31.05434 8194 ft 282 kts 308°
2026-04-25 16:13 59.53891 31.02590 7827 ft 278 kts 308°
2026-04-25 16:13 59.55184 30.99766 7440 ft 277 kts 308°
2026-04-25 16:14 59.56457 30.96984 7069 ft 275 kts 308°
2026-04-25 16:14 59.57733 30.94193 6631 ft 271 kts 308°
2026-04-25 16:14 59.58991 30.91445 6183 ft 266 kts 308°
2026-04-25 16:14 59.60235 30.88723 5525 ft 266 kts 308°
2026-04-25 16:15 59.61467 30.86021 4998 ft 262 kts 307°
2026-04-25 16:15 59.62689 30.83343 4547 ft 262 kts 307°
2026-04-25 16:15 59.63907 30.80668 4185 ft 261 kts 306°
2026-04-25 16:15 59.65113 30.78019 3814 ft 259 kts 306°
2026-04-25 16:16 59.66297 30.75406 3458 ft 256 kts 306°
2026-04-25 16:16 59.67478 30.72800 3328 ft 253 kts 306°
2026-04-25 16:16 59.68660 30.70180 3050 ft 254 kts 306°
2026-04-25 16:16 59.69819 30.67616 2896 ft 244 kts 305°
2026-04-25 16:17 59.70906 30.65227 2865 ft 227 kts 305°
2026-04-25 16:17 59.71929 30.62978 2758 ft 214 kts 304°
2026-04-25 16:17 59.72902 30.60832 2699 ft 209 kts 303°
2026-04-25 16:17 59.73871 30.58667 2599 ft 210 kts 303°
2026-04-25 16:18 59.74737 30.56371 2503 ft 204 kts 290°
2026-04-25 16:18 59.74920 30.55543 2489 ft 201 kts 283°
2026-04-25 16:18 59.75594 30.51152 2453 ft 188 kts 280°
2026-04-25 16:18 59.75954 30.48807 2275 ft 167 kts 279°
2026-04-25 16:19 59.76267 30.46740 2077 ft 149 kts 278°
2026-04-25 16:19 59.76554 30.44830 1878 ft 144 kts 277°
2026-04-25 16:19 59.76838 30.42928 1698 ft 143 kts 277°
2026-04-25 16:20 59.77410 30.39114 1286 ft 145 kts 280°
2026-04-25 16:20 59.77699 30.37189 1070 ft 147 kts 279°
2026-04-25 16:20 59.78280 30.33277 632 ft 147 kts 284°
2026-04-25 16:21 59.78570 30.31349 428 ft 147 kts 285°
2026-04-25 16:21 59.78857 30.29393 256 ft 146 kts 284°
2026-04-25 16:21 59.79150 30.27465 95 ft 141 kts 284°
2026-04-25 16:21 59.79389 30.25870 87 ft 91 kts 286°
2026-04-25 16:22 59.79531 30.24914 90 ft 65 kts 287°
2026-04-25 16:22 59.79652 30.24105 89 ft 57 kts 287°
2026-04-25 16:22 59.79731 30.23585 89 ft 23 kts 286°
2026-04-25 16:22 59.79784 30.23327 85 ft 18 kts 302°
2026-04-25 16:23 59.79851 30.23166 86 ft 12 kts 313°
2026-04-25 16:23 59.79898 30.23068 86 ft 7 kts 316°
2026-04-25 16:23 59.79927 30.23033 85 ft 4 kts 341°
2026-04-25 16:23 59.79951 30.23033 86 ft 3 kts 11°
2026-04-25 16:24 59.79975 30.23084 76 ft 7 kts 74°
2026-04-25 16:24 59.79961 30.23227 85 ft 14 kts 107°
2026-04-25 16:24 59.79928 30.23445 86 ft 18 kts 106°
2026-04-25 16:24 59.79891 30.23694 85 ft 19 kts 106°
2026-04-25 16:25 59.79853 30.23951 86 ft 20 kts 107°
2026-04-25 16:25 59.79849 30.23975 85 ft 0 kts 107°
2026-04-25 16:26 59.79847 30.23987 84 ft 5 kts 107°
2026-04-25 16:26 59.79824 30.24146 89 ft 15 kts 106°
2026-04-25 16:27 59.79793 30.24351 88 ft 15 kts 106°
2026-04-25 16:27 59.79775 30.24479 86 ft 14 kts 105°
2026-04-25 16:27 59.79749 30.24656 89 ft 13 kts 106°
2026-04-25 16:27 59.79726 30.24812 90 ft 11 kts 107°
2026-04-25 16:28 59.79699 30.24989 89 ft 11 kts 107°
2026-04-25 16:28 59.79682 30.25104 90 ft 15 kts 106°
2026-04-25 16:28 59.79648 30.25335 89 ft 20 kts 106°
2026-04-25 16:28 59.79604 30.25637 88 ft 25 kts 106°
2026-04-25 16:29 59.79563 30.25907 89 ft 18 kts 107°
2026-04-25 16:29 59.79595 30.25998 85 ft 10 kts 22°
2026-04-25 16:29 59.79671 30.26060 85 ft 8 kts 28°
2026-04-25 16:29 59.79692 30.26152 83 ft 7 kts 93°
2026-04-25 16:30 59.79680 30.26244 87 ft 7 kts 105°
2026-04-25 16:30 59.79676 30.26325 83 ft 5 kts 66°
2026-04-25 16:30 59.79686 30.26344 87 ft 3 kts 40°
2026-04-25 16:30 59.79701 30.26346 83 ft 2 kts 345°
2026-04-25 16:31 59.79708 30.26326 84 ft 6 kts 306°
2026-04-25 16:31 59.79721 30.26253 83 ft 4 kts 287°
2026-04-25 16:31 59.79722 30.26246 83 ft 0 kts 287°